Location: Tel Aviv
(32.0670°N, 34.7670°E)
Time: 12:36:10
(UTC+03:00)

Transit 2A - Pass Details

Date: 28 January 2022
Orbit: 598 x 960 km, 66.7° (Epoch: 20 May)

Event Time Altitude Azimuth Distance (km) Brightness Sun altitude
Rises 18:37:02 0° 346° (NNW) 3,545 9.5 -18.4°
Reaches altitude 10° 18:40:03 10° 358° (N) 2,550 8.6 -19.0°
Enters shadow 18:43:51 25° 36° (NE) 1,653 7.3 -19.8°
Maximum altitude 18:44:58 27° 54° (NE) 1,574 - -20.0°
Drops below altitude 10° 18:49:29 10° 111° (ESE) 2,341 - -21.0°
Sets 18:52:07 0° 124° (ESE) 3,200 - -21.5°
